Tracking 28792 objects as of 25-Apr-2024
HD Live streaming from Space Station
objects crossing your sky now

STARLINK-31485

Track STARLINK-31485 now!
10-day predictions
STARLINK-31485 is classified as:


NORAD ID: 59308
Int'l Code: 2024-056N
Perigee: 426.3 km
Apogee: 427.8 km
Inclination: 43.0 °
Period: 93.0 minutes
Semi major axis: 6798 km
RCS: Unknown
Launch date: March 24, 2024
Source: United States (US)
Launch site: AIR FORCE EASTERN TEST RANGE (AFETR)
Your satellite tracking list
Your tracking list is empty




NASA's NSSDC Master Catalog

Two Line Element Set (TLE):
1 59308U 24056N   24116.21053044  .00004515  00000-0  87651-4 0  9991
2 59308  42.9999 172.3097 0001154 253.0504 107.0229 15.48910103  6153
Source of the keplerian elements: AFSPC